Location: Mitty Observatory
(35.9148°N, 88.8847°W)
Time: 04:31:59
(UTC-06:00)

LightSail 2 - Pass Details

Date: 25 January 2021
Orbit: 688 x 705 km, 24.0° (Epoch: 09 March)

Event Time Altitude Azimuth Distance (km) Brightness Sun altitude
Exits shadow 05:20:50 - 210° (SSW) 2,177 7.4 -20.2°
Reaches altitude 10° 05:21:04 10° 208° (SSW) 2,121 7.4 -20.2°
Maximum altitude 05:24:09 16° 169° (S) 1,727 7.4 -19.6°
Drops below altitude 10° 05:27:15 10° 131° (SE) 2,121 8.5 -19.0°
Sets 05:30:27 0° 110° (ESE) 3,038 10.0 -18.3°
